GW5848 Weather Reports


Display with metric or nautical units.
time (UTC)temp
F
wind
direction
speed
MPH
gust
MPH
rain 1hr
in
rain 24hr
in
rain mn
in
humidity
%
barometer
mb
20260503230025 63 321 0.0 4.0 0.00 0.00 0.00 26 1013.9
20260503225506 63 301 0.0 4.0 0.00 0.00 0.00 25 1014.0
20260503225003 62 56 1.0 6.0 0.00 0.00 0.00 24 1013.9
20260503224509 62 359 0.0 6.0 0.00 0.00 0.00 24 1014.0
20260503224009 63 327 2.0 4.0 0.00 0.00 0.00 22 1013.9
20260503223503 63 318 2.0 5.0 0.00 0.00 0.00 22 1013.9
20260503223013 63 314 3.0 8.0 0.00 0.00 0.00 24 1013.9
20260503222505 63 315 3.0 8.0 0.00 0.00 0.00 26 1013.8
20260503222007 63 330 3.0 9.0 0.00 0.00 0.00 25 1013.8
20260503221518 63 55 1.0 9.0 0.00 0.00 0.00 27 1013.8
20260503221009 63 333 2.0 9.0 0.00 0.00 0.00 26 1014.0
20260503220508 63 313 4.0 9.0 0.00 0.00 0.00 24 1014.0
20260503220027 63 290 4.0 9.0 0.00 0.00 0.00 24 1014.1
20260503215507 63 310 3.0 8.0 0.00 0.00 0.00 25 1014.0
20260503215012 63 337 2.0 7.0 0.00 0.00 0.00 24 1014.1
20260503214531 63 358 2.0 8.0 0.00 0.00 0.00 23 1014.1
20260503214004 63 302 3.0 9.0 0.00 0.00 0.00 24 1014.1
20260503213507 63 280 4.0 9.0 0.00 0.00 0.00 23 1014.2
20260503213012 63 7 2.0 10.0 0.00 0.00 0.00 24 1014.2
20260503212504 63 327 4.0 10.0 0.00 0.00 0.00 25 1014.2
20260503212005 63 285 5.0 13.0 0.00 0.00 0.00 24 1014.3
20260503211515 62 326 2.0 13.0 0.00 0.00 0.00 24 1014.2
20260503211004 63 337 6.0 10.0 0.00 0.00 0.00 26 1014.2
20260503210505 63 345 3.0 9.0 0.00 0.00 0.00 28 1014.3
20260503210038 64 323 3.0 7.0 0.00 0.00 0.00 24 1014.3
20260503205511 62 276 0.0 6.0 0.00 0.00 0.00 27 1014.5
20260503205007 62 257 4.0 11.0 0.00 0.00 0.00 28 1014.5
20260503204526 62 245 1.0 11.0 0.00 0.00 0.00 26 1014.5
20260503204015 62 307 8.0 11.0 0.00 0.00 0.00 25 1014.4
20260503203507 62 311 2.0 8.0 0.00 0.00 0.00 26 1014.5
20260503203029 62 214 2.0 11.0 0.00 0.00 0.00 25 1014.5
20260503202504 62 297 5.0 11.0 0.00 0.00 0.00 24 1014.6
20260503202004 62 209 3.0 9.0 0.00 0.00 0.00 27 1014.7
20260503201513 61 311 2.0 9.0 0.00 0.00 0.00 27 1014.8
20260503201004 62 349 2.0 9.0 0.00 0.00 0.00 29 1014.9
20260503200505 62 52 2.0 11.0 0.00 0.00 0.00 26 1014.7
20260503200017 62 291 4.0 11.0 0.00 0.00 0.00 25 1015.0
20260503195507 62 274 1.0 8.0 0.00 0.00 0.00 28 1015.0
20260503195007 62 317 3.0 11.0 0.00 0.00 0.00 25 1015.0
20260503194523 62 319 6.0 11.0 0.00 0.00 0.00 28 1015.0
20260503194007 61 327 5.0 12.0 0.00 0.00 0.00 27 1015.2
20260503193506 61 299 3.0 16.0 0.00 0.00 0.00 29 1015.2
20260503193023 60 311 6.0 16.0 0.00 0.00 0.00 27 1015.2
20260503192510 60 321 7.0 12.0 0.00 0.00 0.00 28 1015.3
20260503192010 60 312 6.0 10.0 0.00 0.00 0.00 27 1015.5
20260503191530 59 270 2.0 9.0 0.00 0.00 0.00 31 1015.5
20260503191003 60 56 5.0 9.0 0.00 0.00 0.00 29 1015.6
20260503190503 60 321 1.0 9.0 0.00 0.00 0.00 30 1015.7
20260503190012 60 296 5.0 11.0 0.00 0.00 0.00 27 1015.9
20260503185506 60 293 5.0 11.0 0.00 0.00 0.00 28 1016.0
20260503185011 60 290 4.0 12.0 0.00 0.00 0.00 30 1016.0
20260503184521 59 279 4.0 12.0 0.00 0.00 0.00 32 1016.0
20260503184011 59 268 6.0 12.0 0.00 0.00 0.00 31 1016.1
20260503183508 59 242 5.0 12.0 0.00 0.00 0.00 35 1016.3
20260503183026 59 288 7.0 10.0 0.00 0.00 0.00 30 1016.2
20260503182510 59 226 2.0 13.0 0.00 0.00 0.00 36 1016.2
20260503182012 58 65 3.0 13.0 0.00 0.00 0.00 36 1016.3
20260503181524 59 337 4.0 11.0 0.00 0.00 0.00 31 1016.3
20260503181004 58 306 3.0 8.0 0.00 0.00 0.00 33 1016.4
20260503180504 58 264 4.0 9.0 0.00 0.00 0.00 34 1016.4
20260503180010 57 224 2.0 15.0 0.00 0.00 0.00 32 1016.5
20260503175503 57 338 4.0 15.0 0.00 0.00 0.00 33 1016.6
20260503175003 56 313 7.0 11.0 0.00 0.00 0.00 31 1016.4
20260503174515 57 307 6.0 12.0 0.00 0.00 0.00 30 1016.5
20260503174010 57 293 4.0 12.0 0.00 0.00 0.00 33 1016.6
20260503173506 57 282 5.0 12.0 0.00 0.00 0.00 31 1016.5
20260503173021 57 321 5.0 10.0 0.00 0.00 0.00 35 1016.6
20260503172509 56 226 3.0 11.0 0.00 0.00 0.00 37 1016.6
20260503172013 56 311 5.0 14.0 0.00 0.00 0.00 34 1016.7
20260503171524 56 271 8.0 15.0 0.00 0.00 0.00 34 1016.9
20260503171009 55 341 6.0 15.0 0.00 0.00 0.00 34 1016.9
20260503170504 56 315 7.0 15.0 0.00 0.00 0.00 34 1017.0
20260503151009 50 303 7.0 13.0 0.00 0.00 0.00 40 1018.0
20260503150507 50 297 8.0 14.0 0.00 0.00 0.00 41 1018.1
20260503131004 47 321 5.0 12.0 0.00 0.00 0.00 49 1017.9
20260503130505 47 319 2.0 9.0 0.00 0.00 0.00 52 1017.9
20260503110515 36 108 0.0 1.0 0.00 0.00 0.00 76 1017.1
20260503090502 41 313 1.0 8.0 0.00 0.00 0.00 65 1015.5
20260503081505 41 317 2.0 6.0 0.00 0.00 0.00 67 1015.3
20260503081003 41 307 0.0 6.0 0.00 0.00 0.00 67 1015.3
20260503080503 41 323 2.0 5.0 0.00 0.00 0.00 68 1015.3
20260503071514 42 321 1.0 5.0 0.00 0.00 0.00 68 1014.7
20260503071002 42 326 2.0 5.0 0.00 0.00 0.00 67 1014.7
20260503070504 42 318 1.0 4.0 0.00 0.00 0.00 70 1014.6
20260503055003 39 16 0.0 1.0 0.00 0.00 0.00 75 1014.6
20260503054507 39 337 0.0 0.0 0.00 0.00 0.00 72 1014.5
20260503054002 40 338 0.0 0.0 0.00 0.00 0.00 72 1014.6
20260503053503 40 337 0.0 1.0 0.00 0.00 0.00 71 1014.6
20260503053008 40 337 0.0 1.0 0.00 0.00 0.00 70 1014.5
20260503052505 41 335 0.0 1.0 0.00 0.00 0.00 69 1014.6
20260503052004 42 104 0.0 1.0 0.00 0.00 0.00 67 1014.5
20260503051508 42 288 0.0 1.0 0.00 0.00 0.00 66 1014.4
20260503050009 43 306 1.0 5.0 0.00 0.00 0.00 63 1014.5
20260503045007 44 327 2.0 5.0 0.00 0.00 0.00 62 1014.6
20260503044523 44 321 1.0 4.0 0.00 0.00 0.00 61 1014.5
20260503044003 44 309 1.0 5.0 0.00 0.00 0.00 61 1014.5
20260503043503 45 320 1.0 5.0 0.00 0.00 0.00 60 1014.6
20260503043013 45 316 1.0 3.0 0.00 0.00 0.00 60 1014.6
20260503042503 45 319 2.0 3.0 0.00 0.00 0.00 59 1014.6
20260503042003 45 311 1.0 5.0 0.00 0.00 0.00 59 1014.6
20260503041512 45 306 2.0 9.0 0.00 0.00 0.00 58 1014.5
20260503041003 46 335 3.0 9.0 0.00 0.00 0.00 58 1014.6
20260503040506 46 309 2.0 7.0 0.00 0.00 0.00 58 1014.6
20260503040011 46 332 2.0 8.0 0.00 0.00 0.00 58 1014.5
20260503035003 46 323 1.0 4.0 0.00 0.00 0.00 57 1014.4
20260503034513 46 320 2.0 5.0 0.00 0.00 0.00 56 1014.4
20260503034004 46 307 1.0 5.0 0.00 0.00 0.00 55 1014.4
20260503033503 47 306 1.0 6.0 0.00 0.00 0.00 54 1014.3
20260503032503 47 309 2.0 10.0 0.00 0.00 0.00 53 1014.3
20260503032004 47 353 2.0 10.0 0.00 0.00 0.00 53 1014.3
20260503031514 47 321 3.0 10.0 0.00 0.00 0.00 53 1014.3
20260503031004 48 326 3.0 12.0 0.00 0.00 0.00 52 1014.3
20260503030506 48 325 3.0 12.0 0.00 0.00 0.00 52 1014.2
20260503030017 48 346 4.0 10.0 0.00 0.00 0.00 52 1014.2
20260503025504 47 324 1.0 4.0 0.00 0.00 0.00 53 1014.2
20260503025003 48 218 0.0 1.0 0.00 0.00 0.00 54 1014.2
20260503024515 48 321 0.0 3.0 0.00 0.00 0.00 52 1014.1
20260503023503 48 297 2.0 9.0 0.00 0.00 0.00 50 1014.0
20260503023013 48 323 0.0 9.0 0.00 0.00 0.00 51 1014.0
20260503022503 48 327 1.0 3.0 0.00 0.00 0.00 52 1014.0
20260503022010 48 311 0.0 4.0 0.00 0.00 0.00 53 1014.0
20260503021006 48 357 0.0 0.0 0.00 0.00 0.00 60 1013.9
20260503020509 48 357 0.0 0.0 0.00 0.00 0.00 59 1014.0
20260503020014 48 357 0.0 0.0 0.00 0.00 0.00 57 1014.1
20260503015505 49 357 0.0 1.0 0.00 0.00 0.00 56 1014.1
20260503015003 49 357 0.0 1.0 0.00 0.00 0.00 54 1014.0
20260503014508 50 357 0.0 0.0 0.00 0.00 0.00 50 1014.1
20260503014003 50 357 0.0 1.0 0.00 0.00 0.00 47 1014.0
20260503013503 50 357 0.0 1.0 0.00 0.00 0.00 45 1014.0
20260503013019 51 349 0.0 4.0 0.00 0.00 0.00 43 1014.0
20260503012503 51 300 0.0 6.0 0.00 0.00 0.00 42 1013.9
20260503012005 51 315 3.0 6.0 0.00 0.00 0.00 40 1013.9
20260503011516 51 319 0.0 2.0 0.00 0.00 0.00 42 1013.8
20260503011011 51 337 0.0 3.0 0.00 0.00 0.00 42 1013.7
20260503010507 51 4 0.0 5.0 0.00 0.00 0.00 42 1013.7
20260503010016 51 316 1.0 7.0 0.00 0.00 0.00 40 1013.6
20260503005507 51 313 2.0 7.0 0.00 0.00 0.00 41 1013.6
20260503005007 51 333 3.0 6.0 0.00 0.00 0.00 40 1013.5
20260503004520 51 316 1.0 6.0 0.00 0.00 0.00 40 1013.4
20260503004006 51 311 1.0 6.0 0.00 0.00 0.00 40 1013.3
20260503003506 52 315 4.0 6.0 0.00 0.00 0.00 39 1013.1
20260503003006 52 329 2.0 7.0 0.00 0.00 0.00 39 1013.1
20260503002505 52 338 2.0 7.0 0.00 0.00 0.00 39 1013.0
20260503002006 52 323 3.0 9.0 0.00 0.00 0.00 39 1012.9
20260503001510 52 309 3.0 9.0 0.00 0.00 0.00 40 1012.9
20260503001007 52 326 4.0 9.0 0.00 0.00 0.00 39 1012.7
20260503000504 52 326 3.0 7.0 0.00 0.00 0.00 42 1012.7
20260502235507 52 25 2.0 6.0 0.00 0.00 0.00 42 1012.4
20260502235007 52 290 1.0 9.0 0.00 0.00 0.00 44 1012.4
20260502234516 52 304 3.0 9.0 0.00 0.00 0.00 42 1012.2
20260502234011 53 360 1.0 4.0 0.00 0.00 0.00 42 1012.2
20260502233508 53 307 0.0 2.0 0.00 0.00 0.00 44 1012.2
20260502233018 53 324 0.0 2.0 0.00 0.00 0.00 45 1012.1
20260502232509 53 319 0.0 2.0 0.00 0.00 0.00 44 1012.0
20260502232006 53 305 0.0 2.0 0.00 0.00 0.00 45 1012.0
20260502231516 54 314 0.0 2.0 0.00 0.00 0.00 44 1011.9
20260502231002 54 309 0.0 2.0 0.00 0.00 0.00 44 1011.9
20260502230504 54 2 0.0 2.0 0.00 0.00 0.00 45 1011.8